This is the latest recevied weather packets stored in our database for station/object N3EG. If no packets are shown the sender has not sent any weather packets the latest 10 day(s).
| Time | Temp. | Humidity | Pressure | Rain* | Wind** | Luminosity | Snow |
|---|---|---|---|---|---|---|---|
| 1788568502 | 19.44° C | 66% | 1014.8 hPa | 0 mm | - | - | - |
| 1788568202 | 19.44° C | 68% | 1014.9 hPa | 0 mm | - | - | - |
| 1788567903 | 19.44° C | 67% | 1014.8 hPa | 0 mm | - | - | - |
| 1788567602 | 19.44° C | 67% | 1014.7 hPa | 0 mm | - | - | - |
| 1788567303 | 19.44° C | 68% | 1014.6 hPa | 0 mm | - | - | - |
| 1788567003 | 20° C | 66% | 1014.5 hPa | 0 mm | - | - | - |
| 1788566702 | 20.56° C | 62% | 1014.3 hPa | 0 mm | - | - | - |
| 1788566403 | 20.56° C | 60% | 1014.2 hPa | 0 mm | - | - | - |
| 1788566103 | 20.56° C | 62% | 1014 hPa | 0 mm | - | - | - |
| 1788565802 | 21.11° C | 60% | 1013.9 hPa | 0 mm | - | - | - |
| 1788565503 | 21.11° C | 60% | 1013.9 hPa | 0 mm | - | - | - |
| 1788565203 | 21.11° C | 60% | 1013.7 hPa | 0 mm | - | - | - |
| 1788564902 | 21.11° C | 62% | 1013.6 hPa | 0 mm | - | - | - |
| 1788564603 | 21.11° C | 59% | 1013.5 hPa | 0 mm | - | - | - |
| 1788564302 | 21.11° C | 61% | 1013.5 hPa | 0 mm | - | - | - |
| 1788564003 | 21.11° C | 60% | 1013.5 hPa | 0 mm | - | - | - |
| 1788563703 | 21.11° C | 61% | 1013.5 hPa | 0 mm | - | - | - |
| 1788563402 | 21.11° C | 60% | 1013.4 hPa | 0 mm | - | - | - |
| 1788563103 | 21.11° C | 61% | 1013.3 hPa | 0 mm | - | - | - |
| 1788562803 | 21.11° C | 60% | 1013.3 hPa | 0 mm | - | - | - |
| 1788562502 | 21.11° C | 61% | 1013.2 hPa | 0 mm | - | - | - |
| 1788562203 | 21.11° C | 61% | 1013.2 hPa | 0 mm | - | - | - |
| 1788561903 | 21.11° C | 60% | 1013.3 hPa | 0 mm | - | - | - |
| 1788561602 | 20.56° C | 60% | 1013.3 hPa | 0 mm | - | - | - |
| 1788561303 | 20.56° C | 57% | 1013.3 hPa | 0 mm | - | - | - |
* Rain latest hour (hover to see other rain measurements)
** Current wind speed in m/s (hover to see current wind gust speed)